DateTimeUTC,F1_A11,F1_S11,BsB_S11,BsG_S11,BsR_S11,BbsB_S11,BbsG_S11,BbsR_S11,BaB_A11,BaG_A11,BaR_A11,Tu_S11,T_S11,Uu_S11,U_S11,P_S11,T1_A11
2021-03-29T05:00:00Z,00000200,21000000,,,,,,,-000.21,-000.03,-000.39,16.8,24.2,,00.0,0639.4,31.0
2021-03-29T05:01:00Z,00000200,21000000,,,,,,,0000.11,-000.13,0000.04,16.8,24.2,,00.0,0639.4,31.0
2021-03-29T05:02:00Z,00000200,21000000,,,,,,,-000.10,-000.03,0000.04,16.8,24.3,,00.0,0639.4,30.9
2021-03-29T05:03:00Z,00000200,61000000,,,,,,,0000.25,0000.43,0000.24,16.8,24.3,,00.0,0639.4,30.9
2021-03-29T05:04:00Z,00000200,41000000,0001.24,0000.65,0000.66,0000.29,0000.28,0000.22,0000.20,0000.30,0000.25,17.0,24.1,,00.0,0640.3,30.9
2021-03-29T05:05:00Z,00000200,01000000,0000.86,0000.74,0000.49,0000.42,-000.11,0000.21,0000.47,0000.22,0000.16,17.0,24.1,,00.0,0640.4,30.9
2021-03-29T05:06:00Z,00000200,01000000,0001.12,0000.61,0000.60,0000.14,0000.36,-000.03,0000.50,0000.42,0000.63,17.0,24.1,,00.0,0640.4,30.9
2021-03-29T05:07:00Z,00000200,01000000,0000.35,0000.82,0000.51,0000.38,0000.26,-000.21,0000.76,0000.71,-000.03,16.9,24.0,,00.0,0640.4,30.9
2021-03-29T05:08:00Z,00000200,01000000,0001.83,0000.63,0000.67,0000.09,0000.21,0000.22,0000.55,0000.51,0000.34,16.9,24.0,,00.0,0640.4,30.9
2021-03-29T05:09:00Z,00000200,01000000,0001.26,0000.51,0000.52,0000.51,0000.02,-000.14,0000.38,0000.53,0000.48,16.9,24.0,,00.0,0640.4,30.9
2021-03-29T05:10:00Z,00000200,01000000,0000.70,0000.73,0000.27,0000.17,0000.34,-000.26,0000.93,-000.20,0000.55,16.8,24.0,,00.0,0640.4,30.9
2021-03-29T05:11:00Z,00000200,01000000,0001.33,0000.75,0000.38,0000.11,0000.06,-000.06,0000.03,0000.78,0000.25,16.8,23.9,,00.0,0640.4,30.9
2021-03-29T05:12:00Z,00000200,01000000,0000.96,0000.41,0000.16,0000.27,-000.05,-000.10,0000.78,0000.87,0000.68,16.9,23.9,,00.0,0640.4,30.9
2021-03-29T05:13:00Z,00000200,01000000,0001.04,0000.64,0000.44,0000.47,0000.03,0000.35,0000.20,0000.18,-000.00,17.0,24.0,,00.0,0640.3,31.0
2021-03-29T05:14:00Z,00000200,01000000,0001.11,0000.78,0000.28,0000.70,0000.21,0000.06,0000.43,0000.51,0000.48,17.1,24.0,,00.0,0640.3,31.0
2021-03-29T05:15:00Z,00000200,01000000,0001.56,0000.49,0000.30,0000.16,-000.02,-000.03,0000.38,0000.44,0000.26,17.1,24.0,,00.0,0640.3,30.9
2021-03-29T05:16:00Z,00000200,01000000,0000.85,0000.63,0000.46,-000.30,0000.18,-000.18,0000.19,-000.24,-000.07,17.2,24.1,,00.0,0640.4,31.0
2021-03-29T05:17:00Z,00000200,01000000,0000.88,0000.82,0000.50,0000.23,0000.11,0000.05,0000.18,0000.28,0000.29,17.2,24.1,,00.0,0640.4,31.0
2021-03-29T05:18:00Z,00000200,01000000,0001.37,0000.40,0000.24,-000.01,-000.19,0000.08,0000.43,0000.28,0000.16,17.2,24.1,,00.0,0640.4,31.0
2021-03-29T05:19:00Z,00000200,01000000,0000.25,0000.40,0000.38,0000.33,0000.08,-000.07,0000.56,0000.37,0000.24,17.2,24.1,,00.0,0640.4,30.9
2021-03-29T05:20:00Z,00000200,01000000,0000.54,0000.52,0000.49,-000.02,0000.28,0000.18,0000.21,0000.53,0000.45,17.1,24.1,,00.0,0640.4,30.9
2021-03-29T05:21:00Z,00000200,01000000,0000.98,0000.72,0000.38,0000.26,0000.18,0000.08,0000.13,0000.15,0000.20,17.1,24.0,,00.0,0640.4,30.9
2021-03-29T05:22:00Z,00000200,01000000,0000.90,0000.66,0000.23,0000.46,0000.15,-000.10,-000.01,0000.48,0000.10,17.0,24.0,,00.0,0640.4,30.9
2021-03-29T05:23:00Z,00000200,01000000,0000.63,0000.41,0000.10,0000.07,-000.05,-000.08,0000.90,0000.06,-000.01,17.0,24.0,,00.0,0640.4,30.9
2021-03-29T05:24:00Z,00000200,01000000,0000.29,0000.46,0000.14,-000.16,-000.07,-000.20,0000.21,0000.15,0000.60,16.9,24.0,,00.0,0640.4,30.9
2021-03-29T05:25:00Z,00000200,01000000,0000.65,0000.51,0000.37,0000.13,0000.24,-000.27,0000.53,0000.63,0000.37,16.9,24.0,,00.0,0640.4,30.9
2021-03-29T05:26:00Z,00000200,01000000,0000.39,0000.46,0000.09,0000.02,0000.13,0000.15,0000.80,0000.66,0000.48,16.9,24.0,,00.0,0640.3,30.9
2021-03-29T05:27:00Z,00000200,01000000,0000.70,0000.36,0000.17,0000.02,0000.05,-000.04,0000.66,0000.55,0000.69,17.0,23.9,,00.0,0640.3,30.9
2021-03-29T05:28:00Z,00000200,01000000,0000.32,0000.15,-000.11,0000.37,0000.01,-000.29,0000.27,0000.20,-000.15,17.1,24.0,,00.0,0640.3,30.9
2021-03-29T05:29:00Z,00000200,01000000,0001.21,0000.36,0000.10,0000.23,-000.02,0000.10,0000.36,0000.50,0000.48,17.1,24.0,,00.0,0640.3,30.9
2021-03-29T05:30:00Z,00000200,01000000,0000.32,-000.06,0000.38,-000.03,0000.11,0000.17,0000.14,0000.29,0000.15,17.1,24.0,,00.0,0640.3,30.9
2021-03-29T05:31:00Z,00000200,01000000,0000.27,0000.01,-000.10,-000.09,0000.09,-000.14,0000.41,0000.20,0000.39,17.1,24.0,,00.0,0640.3,30.9
2021-03-29T05:32:00Z,00000200,01000000,0000.23,0000.23,0000.08,0000.34,0000.26,-000.00,0000.52,0000.65,-000.04,17.0,24.0,,00.0,0640.3,30.9
2021-03-29T05:33:00Z,00000200,01000000,0000.17,0000.43,0000.07,0000.10,0000.16,-000.18,0000.40,-000.05,0000.37,17.0,24.0,,00.0,0640.3,30.9
2021-03-29T05:34:00Z,00000200,01000000,0001.08,0000.43,0000.24,0000.47,0000.10,-000.05,0000.03,0000.32,0000.33,17.0,24.0,,00.0,0640.3,30.9
2021-03-29T05:35:00Z,00000200,01000000,0000.73,-000.02,0000.10,-000.13,-000.09,-000.04,0000.29,0000.00,0000.04,16.9,23.9,,00.0,0640.3,30.9
2021-03-29T05:36:00Z,00000200,01000000,0000.29,0000.20,0000.25,-000.07,0000.13,-000.28,0000.14,0000.40,0000.10,16.9,23.9,,00.0,0640.3,30.9
2021-03-29T05:37:00Z,00000200,01000000,0000.21,-000.05,0000.15,0000.05,0000.25,0000.17,0000.30,0000.20,0000.18,16.9,23.9,,00.0,0640.3,30.9
2021-03-29T05:38:00Z,00000200,01000000,0000.16,0000.01,0000.15,-000.02,0000.01,-000.03,0000.20,0000.16,0000.27,16.8,23.9,,00.0,0640.3,30.9
2021-03-29T05:39:00Z,00000200,01000000,0000.02,0000.08,0000.19,0000.32,-000.06,-000.20,0000.37,0000.41,-000.17,16.8,23.9,,00.0,0640.3,30.9
2021-03-29T05:40:00Z,00000200,01000000,0000.27,0000.07,0000.34,0000.39,-000.12,-000.05,-000.34,-000.68,0000.12,16.8,23.8,,00.0,0640.3,30.9
2021-03-29T05:41:00Z,00000200,01000000,0000.34,0000.38,0000.10,-000.23,0000.10,-000.09,-000.38,0000.02,-000.69,16.8,23.8,,00.0,0640.3,30.9
2021-03-29T05:42:00Z,00000200,01000000,0001.12,0000.65,0000.10,0000.07,0000.10,-000.19,-000.40,-000.54,0000.31,16.9,23.8,,00.0,0640.3,30.9
2021-03-29T05:43:00Z,00000200,01000000,0000.10,-000.09,-000.10,0000.12,-000.13,-000.32,0000.15,0000.29,0000.06,16.9,23.9,,00.0,0640.3,30.9
2021-03-29T05:44:00Z,00000200,01000000,0000.25,0000.28,-000.14,0000.29,0000.12,-000.30,0000.75,0000.80,0000.97,17.0,23.9,,00.0,0640.3,30.9
2021-03-29T05:45:00Z,00000200,01000000,0000.37,-000.12,0000.00,-000.25,0000.14,-000.22,0000.46,0000.03,-000.52,17.1,24.0,,00.0,0640.3,31.0
2021-03-29T05:46:00Z,00000200,01000000,0000.76,0000.70,0000.26,0000.04,-000.05,0000.00,-000.46,-000.23,-000.24,17.1,24.0,,00.0,0640.3,31.0
2021-03-29T05:47:00Z,00000200,01000000,0001.03,0000.66,0000.37,-000.21,0000.17,0000.13,-000.23,-000.33,-000.19,17.2,24.0,,00.0,0640.3,30.9
2021-03-29T05:48:00Z,00000200,01000000,0000.80,0000.45,0000.25,-000.29,0000.10,0000.20,0000.27,0000.75,0000.49,17.1,24.0,,00.0,0640.4,30.9
2021-03-29T05:49:00Z,00000200,01000000,0000.60,0000.24,0000.13,0000.31,0000.31,0000.01,0000.21,0000.00,0000.06,17.1,24.0,,00.0,0640.4,30.9
2021-03-29T05:50:00Z,00000200,01000000,0000.92,0000.48,0000.19,0000.24,0000.09,-000.19,-000.29,-000.44,0000.02,17.0,24.0,,00.0,0640.4,30.9
2021-03-29T05:51:00Z,00000200,01000000,0001.08,0000.47,0000.27,0000.06,0000.11,-000.21,0000.26,0000.15,-000.25,17.0,23.9,,00.0,0640.4,30.9
2021-03-29T05:52:00Z,00000200,01000000,0001.43,0000.74,0000.40,-000.08,0000.13,-000.06,0000.05,0000.07,0000.20,16.9,23.9,,00.0,0640.4,30.9
2021-03-29T05:53:00Z,00000200,01000000,0001.22,0000.41,0000.46,-000.09,0000.10,-000.21,0000.43,0000.58,0000.44,16.9,23.9,,00.0,0640.4,30.9
2021-03-29T05:54:00Z,00000200,01000000,0000.40,0000.32,0000.40,-000.20,0000.04,-000.14,-000.07,0000.19,0000.27,16.9,23.9,,00.0,0640.4,30.9
2021-03-29T05:55:00Z,00000200,01000000,0000.90,0000.36,0000.50,-000.04,-000.07,-000.03,0000.59,0000.11,-000.10,16.8,23.9,,00.0,0640.4,30.9
2021-03-29T05:56:00Z,00000200,01000000,0001.28,0000.50,0000.20,0000.39,0000.42,-000.04,0000.26,0000.32,0000.60,16.8,23.8,,00.0,0640.4,30.9
2021-03-29T05:57:00Z,00000200,41000000,,,,,,,-000.23,-000.17,-000.49,16.9,23.9,,00.0,0640.4,30.9
2021-03-29T05:58:00Z,00000200,61000000,,,,,,,-000.09,0000.30,0000.44,16.7,24.0,,00.0,0639.5,30.9
2021-03-29T05:59:00Z,00000200,21000000,,,,,,,0000.26,0000.08,-000.17,16.7,24.1,,00.0,0639.5,30.9
